Preview of NWS' New Version of Forecast
This preview is not operational and should not be used for support decisions.
Latest weather observations around

Bishop, Bishop Airport (KBIH)

Using English Units (Switch to International System of Units)
Date/ Time (PDT) Wind (mph) Vis. (mi) Weather Sky Cond. Temp (°F) Rel. Humidity Wind Chill (°F) Heat Index (°F) Pressure Precip. (in)
Air Dwpt 6 hour Altimeter (inHg) Sea level (inHg) 1 hr 3 hr 6 hr
Max Min
Jun 18 12:56 SSW 10 10 Clear CLR 91 37     15%   87   29.91      
Jun 18 11:56 6 10 Clear CLR 88 39     18%   84   29.94      
Jun 18 10:56 Calm 10 Clear CLR 85 44     24%   82   29.95      
Jun 18 09:56 WNW 6 10 Clear CLR 81 44     27%   80   29.96      
Jun 18 08:56 6 10 Clear CLR 76 46     35%   75   29.97      
Jun 18 07:56 NNW 5 10 Clear CLR 68 46     45%     30.12 29.99      
Jun 18 06:56 NNW 5 10 Clear CLR 61 46     58%       29.99      
Jun 18 05:56 NW 7 10 Clear CLR 53 45     74%     30.1 29.96      
Jun 18 04:56 NW 6 10 Clear CLR 54 46     74%     30.08 29.96      
Jun 18 03:56 N 6 10 Clear CLR 52 46     80%     30.07 29.96      
Jun 18 02:56 WNW 8 10 Clear CLR 54 47     77%     30.07 29.92      
Jun 18 01:56 NNW 7 10 Clear CLR 55 48     77%       29.92      
Jun 18 00:56 W 5 10 Clear CLR 59 49     69%     30.06 29.92      
Jun 17 23:56 NW 7 10 Clear CLR 58 49     72%       29.92      
Jun 17 22:56 NE 5 10 Clear CLR 61 50     67%       29.93     0
Jun 17 21:56 S 9 10 Clear CLR 68 48     49%       29.91      
Jun 17 20:56 SSE 9 10 Clear CLR 69 50     51%       29.89      
Jun 17 19:56 SSE 11 10 Clear CLR 70 54     57%     30.01 29.89 0 0  
Jun 17 19:14 3 8 Light Rain FEW070 SCT080 OVC100 69 56     63%     30.01   0    
Jun 17 18:56 W 17 10 Cloudy OVC100 75 46     36%   74 29.99 29.86 0    
Jun 17 18:46 W 14 10 Mostly Cloudy BKN110 75 46     36%   74     0    
Jun 17 18:32 W 18 10 Thunderstorms and Rain BKN110 76 47     36%   75     0    
Jun 17 17:56 5 10 Clear CLR 86 38     18%   83 29.91 29.76 0    
Jun 17 16:56 SE 10 10 Light Rain SCT030 SCT120 79 48     34%   78 29.91 29.77 0   0
Jun 17 15:56 E 17 10 Mostly Cloudy FEW060 SCT070 BKN110 82 39     22%   80 29.91 29.77      
Jun 17 15:33   10 Mostly Cloudy BKN110 86 37     18%   83 29.92        
Jun 17 15:21 ENE 14 10 Mostly Cloudy BKN110 87 38     18%   84 29.91        
Jun 17 15:06 NNW 8 10 Thunderstorms SCT110 93 36     14%   89 29.9        
Jun 17 14:56 WNW 13 10 Clear CLR 93 36     14%   89 29.9 29.74      
Jun 17 13:56 WSW 6 10 Clear CLR 90 36     15%   86   29.77      
Jun 17 12:56 SE 8 10 Clear CLR 87 36     16%   84   29.79      
Jun 17 12:06 WSW 3 10 Clear CLR 84 36     18%   81          
Jun 17 11:56 NE 5 10 Clear CLR 87 36     16%   84   29.82      
Jun 17 11:48 3 10 Clear CLR 85 35     17%   82          
Jun 17 11:29 5 10 Clear CLR 86 39     19%   83          
Jun 17 11:14 NE 5 10 Clear CLR 85 40     20%   82          
Jun 17 10:56 3 10 Clear CLR 83 40     22%   81   29.83      
Jun 17 09:56 NNW 5 10 Clear CLR 80 43     27%   79   29.83      
Jun 17 08:56 W 6 10 Clear CLR 72 45     38%   71   29.84      
Jun 17 07:56 NW 8 10 Clear CLR 68 44     42%       29.84      
Jun 17 06:56 W 7 10 Clear CLR 63 45     52%       29.84      
Jun 17 05:56 N 5 10 Clear CLR 61 45     56%       29.82      
Jun 17 04:56 Calm 10 Clear CLR 61 44     54%     29.96 29.81      
Jun 17 03:56 N 6 10 Clear CLR 61 44     54%     29.95 29.8      
Jun 17 02:56 N 6 10 Clear CLR 62 44     52%     29.95 29.79      
Jun 17 01:56 NNW 5 10 Clear CLR 59 45     60%     29.95 29.8      
Jun 17 00:56 SW 6 10 Clear CLR 63 45     52%     29.96 29.8      
Jun 16 23:56 E 6 10 Clear CLR 64 44     48%       29.82      
Jun 16 22:56 NNW 3 10 Clear   67 45     45%       29.84      
Jun 16 21:56 N 20 10 Clear and Windy CLR 72 44     37%   71   29.83      
Jun 16 20:56 NNW 20 10 Partly Cloudy and Windy SCT120 78 37     23%   77   29.77      
Jun 16 19:56 NNW 20 10 Clear and Windy CLR 81 36     20%   80   29.71      
Jun 16 18:56 NW 8 10 Clear CLR 82 39     22%   80 29.84 29.69      
Jun 16 17:56 NNE 15 10 Clear CLR 83 40     22%   81 29.84 29.7      
Jun 16 17:22 NW 14 10 Clear CLR 86 37     18%   83 29.83        
Jun 16 16:56 WSW 16 10 Clear CLR 87 30     13%   83 29.82 29.67      
Jun 16 16:46 WSW 20 10 Clear and Windy CLR 87 29     12%   83          
Jun 16 16:31 S 7 10 Clear CLR 90 33     13%   86          
Jun 16 15:56 S 8 10 Clear CLR 91 33     13%   87   29.64      
Jun 16 15:45 S 11 10 Clear CLR 92 33     12%   87          
Jun 16 14:56 SSE 8 10 Clear CLR 92 32     12%   87   29.65      
Jun 16 13:56 S 8 10 Clear CLR 92 37     15%   88   29.68      
Jun 16 12:56 ENE 7 10 Clear CLR 90 38     16%   86   29.71      
Jun 16 11:56 N 6 10 Clear CLR 87 39     18%   84   29.75      
Jun 16 10:56 NNW 5 10 Clear CLR 84 41     22%   81 29.92 29.76      
Jun 16 09:56 NNW 5 10 Clear CLR 82 42     24%   80   29.77      
Jun 16 08:56 3 10 Clear CLR 78 43     29%   77   29.79      
Jun 16 07:56 NW 5 10 Clear CLR 72 44     37%   71   29.79      
Jun 16 06:56 WNW 5 10 Clear CLR 66 42     42%       29.79      
Jun 16 05:56 Calm 10 Clear CLR 59 40     49%     29.95 29.79      
Jun 16 04:56 NNE 5 10 Clear CLR 60 40     47%       29.78      
Jun 16 03:56 WNW 8 10 Clear CLR 63 39     41%       29.77      
Jun 16 02:56 NNW 9 10 Clear CLR 65 39     38%       29.77      
Jun 16 01:56 NW 5 10 Clear CLR 68 40     36%       29.77      
Jun 16 00:56 6 10 Clear CLR 69 39     33%     29.95 29.78      
Jun 15 23:56 NW 7 10 Clear CLR 71 38     30%   69 29.95 29.79      
Jun 15 22:56 WNW 6 10 Clear CLR 73 40     30%   71 29.96 29.79      
Jun 15 21:56 N 13 10 Clear CLR 77 40     26%   76   29.77      
Jun 15 20:56 N 11 10 Clear CLR 77 40     26%   76   29.75      
Jun 15 19:56 WSW 17 10 Clear CLR 86 30     13%   83   29.71      
Jun 15 18:56 W 15 10 Clear CLR 90 32     13%   86   29.71      
Jun 15 17:56 WSW 10 10 Clear CLR 92 29     11%   87   29.72      
Jun 15 16:56 WSW 16 10 Clear CLR 92 31     11%   87   29.73     0
Jun 15 15:56 W 13 10 Clear CLR 93 31     11%   88   29.73      
Jun 15 14:56 3 10 Clear CLR 92 34     13%   88   29.75      
Jun 15 13:56 SE 13 10 Mostly Clear FEW120 95 36     13%   90   29.76   0  
Jun 15 12:56 6 10 Clear CLR 93 38     15%   89   29.78      
May 15 06:56 NNE 3 10 Clear CLR 49 40     71% 48   30 29.92      
May 15 04:56 NNW 6 10 Clear CLR 44 39     82% 41   29.98 29.9      
May 14 14:56 S 17 10 Mostly Cloudy FEW046 SCT090 BKN120 69 37     31%       29.84 0    
May 14 10:56 Calm 10 Partly Cloudy SCT080 70 34     26%       29.87      
May 13 09:56 N 13 10 Clear CLR 66 35     32%     29.96 29.86      
May 13 05:56 NNW 6 10 Mostly Cloudy BKN095 47 38     71% 44     29.88      
May 12 16:56 NNW 22 10 Cloudy and Windy OVC090 62 36     38%     29.85 29.78      
May 11 21:56 NE 8 10 Mostly Cloudy BKN100 52 29     41%       29.76      
May 11 17:56   10 Mostly Clear FEW120 60 26     27%     29.74 29.65      
May 11 11:56 N 26 10 Clear and Breezy CLR 79 20     11%   77   29.49      
Jun 12 00:56   10 Clear CLR 47 20     34%     29.84 29.73      
Jun 11 19:56   10 Clear CLR 56 8     14%     29.77 29.67      
Jun 11 18:56   10 Clear CLR 59 7     12%     29.78 29.69      
Jun 11 13:56   10 Clear CLR 75 13     9%   73 29.65 29.54      
Notice The following observation data may not be complete
Jun 11 06:56 3 10 Clear CLR   32      %     29.69 29.55      
Notice The following observation data may not be complete
Jun 11 05:56 NNE 5 10 Clear CLR   28      %       29.56      
Jun 10 23:56 W 7 10 Clear   62 28     27%       29.56      
Jun 10 19:56   10 Clear CLR 74 23     15%   72 29.68 29.54      
Jun 10 16:56 W 11 10 Clear CLR 88        %     29.65 29.51      
Jun 10 08:56 3 10 Clear CLR 70 31     23%       29.63      
Jun 10 04:56 WNW 6 10 Clear CLR 51 32     48%     29.75 29.61      
Jun 10 02:56 NNW 6 10 Clear CLR 55 32     41%     29.77 29.63      
Jun 09 22:56 N 9 10 Clear CLR 67 31     26%     29.78 29.64      
Jun 09 15:56   10 Clear CLR 91 25     9%   86 29.68 29.53      
Jun 09 10:56 SSE 6 10 Clear CLR 79 34     20%   77 29.82 29.68      
Jun 09 09:56 NW 5 10 Clear CLR 77 37     24%   76 29.84 29.7      
Jun 09 00:56 N 14 10 Clear   62 36     38%     29.88 29.73      
Notice The following observation data may not be complete
Jun 08 08:56   10 Clear CLR          %              
Jun 07 14:56 SSE 21 10 Clear and Windy CLR 96        %     29.85 29.7      
Jun 06 10:56 N 5 10 Clear CLR 87 34     15%   84   29.82      
Jun 05 21:56 N 5 10 Clear CLR 75 33     22%   73   29.76      
Jun 05 18:56 S 10 10 Clear CLR 90 30     12%   86   29.71      
Jun 05 17:56 SSW 7 10 Clear CLR 92 27     10%   87   29.71      
Jun 05 12:56 WNW 6 10 Clear CLR 88 31     13%   84   29.78